Time,TemperatureF,DewpointF,PressureIn,WindDirection,WindDirectionDegrees,WindSpeedMPH,WindSpeedGustMPH,Humidity,HourlyPrecipIn,Conditions,Clouds,dailyrainin,SoftwareType,DateUTC
2013-09-29 00:03:00,59.7,45.9,-100.00,North,-999,0.0,0.0,60,0.00,,,-99.99,FreeWX-Wi 1.02,2013-09-29 04:03:00,
2013-09-29 00:13:00,59.5,45.7,-100.00,North,-999,0.0,0.0,60,0.00,,,-99.99,FreeWX-Wi 1.02,2013-09-29 04:13:00,
2013-09-29 00:23:00,59.4,45.5,-100.00,North,-999,0.0,0.0,60,0.00,,,-99.99,FreeWX-Wi 1.02,2013-09-29 04:23:00,
2013-09-29 00:33:00,59.2,45.7,-100.00,North,-999,0.0,0.0,61,0.00,,,-99.99,FreeWX-Wi 1.02,2013-09-29 04:33:00,
2013-09-29 00:43:00,59.2,45.7,-100.00,North,-999,0.0,0.0,61,0.00,,,-99.99,FreeWX-Wi 1.02,2013-09-29 04:43:00,
2013-09-29 00:53:00,59.0,45.5,-100.00,North,-999,0.0,0.0,61,0.00,,,-99.99,FreeWX-Wi 1.02,2013-09-29 04:53:00,
2013-09-29 01:03:00,58.8,45.9,-100.00,North,-999,0.0,0.0,62,0.00,,,-99.99,FreeWX-Wi 1.02,2013-09-29 05:03:00,
2013-09-29 01:13:00,58.8,45.9,-100.00,North,-999,0.0,0.0,62,0.00,,,-99.99,FreeWX-Wi 1.02,2013-09-29 05:13:00,
2013-09-29 01:23:00,58.6,45.7,-100.00,North,-999,0.0,0.0,62,0.00,,,-99.99,FreeWX-Wi 1.02,2013-09-29 05:23:00,
2013-09-29 01:33:00,58.5,45.9,-100.00,North,-999,0.0,0.0,63,0.00,,,-99.99,FreeWX-Wi 1.02,2013-09-29 05:33:00,
2013-09-29 01:43:00,58.5,45.9,-100.00,North,-999,0.0,0.0,63,0.00,,,-99.99,FreeWX-Wi 1.02,2013-09-29 05:43:00,
2013-09-29 01:53:00,58.5,45.9,-100.00,North,-999,0.0,0.0,63,0.00,,,-99.99,FreeWX-Wi 1.02,2013-09-29 05:53:00,
2013-09-29 02:03:00,58.3,45.7,-100.00,North,-999,0.0,0.0,63,0.00,,,-99.99,FreeWX-Wi 1.02,2013-09-29 06:03:00,
2013-09-29 02:13:00,58.1,45.5,-100.00,North,-999,0.0,0.0,63,0.00,,,-99.99,FreeWX-Wi 1.02,2013-09-29 06:13:00,
2013-09-29 02:23:00,58.1,46.0,-100.00,North,-999,0.0,0.0,64,0.00,,,-99.99,FreeWX-Wi 1.02,2013-09-29 06:23:00,
2013-09-29 02:33:00,57.9,45.9,-100.00,North,-999,0.0,0.0,64,0.00,,,-99.99,FreeWX-Wi 1.02,2013-09-29 06:33:00,
2013-09-29 02:43:00,57.9,45.9,-100.00,North,-999,0.0,0.0,64,0.00,,,-99.99,FreeWX-Wi 1.02,2013-09-29 06:43:00,
2013-09-29 02:53:00,57.9,45.9,-100.00,North,-999,0.0,0.0,64,0.00,,,-99.99,FreeWX-Wi 1.02,2013-09-29 06:53:00,
2013-09-29 03:03:00,57.7,45.7,-100.00,North,-999,0.0,0.0,64,0.00,,,-99.99,FreeWX-Wi 1.02,2013-09-29 07:03:00,
2013-09-29 03:13:00,57.6,45.9,-100.00,North,-999,0.0,0.0,65,0.00,,,-99.99,FreeWX-Wi 1.02,2013-09-29 07:13:00,
2013-09-29 03:23:00,57.6,45.9,-100.00,North,-999,0.0,0.0,65,0.00,,,-99.99,FreeWX-Wi 1.02,2013-09-29 07:23:00,
2013-09-29 03:33:00,57.4,45.7,-100.00,North,-999,0.0,0.0,65,0.00,,,-99.99,FreeWX-Wi 1.02,2013-09-29 07:33:00,
2013-09-29 03:43:00,57.4,45.7,-100.00,North,-999,0.0,0.0,65,0.00,,,-99.99,FreeWX-Wi 1.02,2013-09-29 07:43:00,
2013-09-29 03:53:00,57.2,45.5,-100.00,North,-999,0.0,0.0,65,0.00,,,-99.99,FreeWX-Wi 1.02,2013-09-29 07:53:00,
2013-09-29 04:03:00,57.2,45.5,-100.00,North,-999,0.0,0.0,65,0.00,,,-99.99,FreeWX-Wi 1.02,2013-09-29 08:03:00,
2013-09-29 04:13:00,57.0,45.9,-100.00,North,-999,0.0,0.0,66,0.00,,,-99.99,FreeWX-Wi 1.02,2013-09-29 08:13:00,
2013-09-29 04:23:00,56.8,45.7,-100.00,North,-999,0.0,0.0,66,0.00,,,-99.99,FreeWX-Wi 1.02,2013-09-29 08:23:00,
2013-09-29 04:33:00,56.8,45.7,-100.00,North,-999,0.0,0.0,66,0.00,,,-99.99,FreeWX-Wi 1.02,2013-09-29 08:33:00,
2013-09-29 04:43:00,56.7,45.5,-100.00,North,-999,0.0,0.0,66,0.00,,,-99.99,FreeWX-Wi 1.02,2013-09-29 08:43:00,
2013-09-29 04:53:00,56.7,45.5,-100.00,North,-999,0.0,0.0,66,0.00,,,-99.99,FreeWX-Wi 1.02,2013-09-29 08:53:00,
2013-09-29 05:03:00,56.5,45.3,-100.00,North,-999,0.0,0.0,66,0.00,,,-99.99,FreeWX-Wi 1.02,2013-09-29 09:03:00,
2013-09-29 05:13:00,56.3,45.5,-100.00,North,-999,0.0,0.0,67,0.00,,,-99.99,FreeWX-Wi 1.02,2013-09-29 09:13:00,
2013-09-29 05:23:00,56.3,45.5,-100.00,North,-999,0.0,0.0,67,0.00,,,-99.99,FreeWX-Wi 1.02,2013-09-29 09:23:00,
2013-09-29 05:33:00,56.3,45.5,-100.00,North,-999,0.0,0.0,67,0.00,,,-99.99,FreeWX-Wi 1.02,2013-09-29 09:33:00,
2013-09-29 05:43:00,56.1,45.3,-100.00,North,-999,0.0,0.0,67,0.00,,,-99.99,FreeWX-Wi 1.02,2013-09-29 09:43:00,
2013-09-29 05:53:00,55.9,45.1,-100.00,North,-999,0.0,0.0,67,0.00,,,-99.99,FreeWX-Wi 1.02,2013-09-29 09:53:00,
2013-09-29 06:03:00,55.9,45.1,-100.00,North,-999,0.0,0.0,67,0.00,,,-99.99,FreeWX-Wi 1.02,2013-09-29 10:03:00,
2013-09-29 06:13:00,55.9,45.1,-100.00,North,-999,0.0,0.0,67,0.00,,,-99.99,FreeWX-Wi 1.02,2013-09-29 10:13:00,
2013-09-29 06:23:00,55.9,45.5,-100.00,North,-999,0.0,0.0,68,0.00,,,-99.99,FreeWX-Wi 1.02,2013-09-29 10:23:00,
2013-09-29 06:33:00,55.9,45.5,-100.00,North,-999,0.0,0.0,68,0.00,,,-99.99,FreeWX-Wi 1.02,2013-09-29 10:33:00,
2013-09-29 06:43:00,55.8,45.3,-100.00,North,-999,0.0,0.0,68,0.00,,,-99.99,FreeWX-Wi 1.02,2013-09-29 10:43:00,
2013-09-29 06:53:00,55.8,45.3,-100.00,North,-999,0.0,0.0,68,0.00,,,-99.99,FreeWX-Wi 1.02,2013-09-29 10:53:00,
2013-09-29 07:03:00,55.6,45.1,-100.00,North,-999,0.0,0.0,68,0.00,,,-99.99,FreeWX-Wi 1.02,2013-09-29 11:03:00,
2013-09-29 07:13:00,55.6,45.1,-100.00,North,-999,0.0,0.0,68,0.00,,,-99.99,FreeWX-Wi 1.02,2013-09-29 11:13:00,
2013-09-29 07:23:00,55.6,45.5,-100.00,North,-999,0.0,0.0,69,0.00,,,-99.99,FreeWX-Wi 1.02,2013-09-29 11:23:00,
2013-09-29 07:33:00,55.6,45.5,-100.00,North,-999,0.0,0.0,69,0.00,,,-99.99,FreeWX-Wi 1.02,2013-09-29 11:33:00,
2013-09-29 07:43:00,55.4,45.3,-100.00,North,-999,0.0,0.0,69,0.00,,,-99.99,FreeWX-Wi 1.02,2013-09-29 11:43:00,
2013-09-29 07:53:00,55.2,45.1,-100.00,North,-999,0.0,0.0,69,0.00,,,-99.99,FreeWX-Wi 1.02,2013-09-29 11:53:00,
2013-09-29 08:03:00,55.2,45.1,-100.00,North,-999,0.0,0.0,69,0.00,,,-99.99,FreeWX-Wi 1.02,2013-09-29 12:03:00,
2013-09-29 08:13:00,55.4,45.3,-100.00,North,-999,0.0,0.0,69,0.00,,,-99.99,FreeWX-Wi 1.02,2013-09-29 12:13:00,
2013-09-29 08:23:00,55.6,46.0,-100.00,North,-999,0.0,0.0,70,0.00,,,-99.99,FreeWX-Wi 1.02,2013-09-29 12:23:00,
2013-09-29 08:33:00,55.9,46.2,-100.00,North,-999,0.0,0.0,70,0.00,,,-99.99,FreeWX-Wi 1.02,2013-09-29 12:33:00,
2013-09-29 08:43:00,56.1,46.4,-100.00,North,-999,0.0,0.0,70,0.00,,,-99.99,FreeWX-Wi 1.02,2013-09-29 12:43:00,
2013-09-29 08:53:00,56.5,47.1,-100.00,North,-999,0.0,0.0,71,0.00,,,-99.99,FreeWX-Wi 1.02,2013-09-29 12:53:00,
2013-09-29 09:03:00,56.8,47.5,-100.00,North,-999,0.0,0.0,71,0.00,,,-99.99,FreeWX-Wi 1.02,2013-09-29 13:03:00,
2013-09-29 09:13:00,57.2,47.8,-100.00,North,-999,0.0,2.7,71,0.00,,,-99.99,FreeWX-Wi 1.02,2013-09-29 13:13:00,
2013-09-29 09:23:00,57.6,48.2,-100.00,North,-999,0.0,0.0,71,0.00,,,-99.99,FreeWX-Wi 1.02,2013-09-29 13:23:00,
2013-09-29 09:33:00,57.9,48.9,-100.00,North,-999,0.0,0.0,72,0.00,,,-99.99,FreeWX-Wi 1.02,2013-09-29 13:33:00,
2013-09-29 09:43:00,58.3,49.3,-100.00,North,-999,0.0,0.0,72,0.00,,,-99.99,FreeWX-Wi 1.02,2013-09-29 13:43:00,
2013-09-29 09:53:00,58.6,49.6,-100.00,North,-999,0.0,2.2,72,0.00,,,-99.99,FreeWX-Wi 1.02,2013-09-29 13:53:00,
2013-09-29 10:03:00,59.0,50.0,-100.00,North,-999,0.0,2.7,72,0.00,,,-99.99,FreeWX-Wi 1.02,2013-09-29 14:03:00,
2013-09-29 10:13:00,59.5,50.5,-100.00,North,-999,0.0,0.0,72,0.00,,,-99.99,FreeWX-Wi 1.02,2013-09-29 14:13:00,
2013-09-29 10:23:00,60.1,51.1,-100.00,North,-999,0.0,2.2,72,0.00,,,-99.99,FreeWX-Wi 1.02,2013-09-29 14:23:00,
2013-09-29 10:33:00,60.4,50.9,-100.00,North,-999,0.0,3.1,71,0.00,,,-99.99,FreeWX-Wi 1.02,2013-09-29 14:33:00,
2013-09-29 10:43:00,61.3,51.4,-100.00,North,-999,0.0,4.0,70,0.00,,,-99.99,FreeWX-Wi 1.02,2013-09-29 14:43:00,
2013-09-29 10:53:00,61.9,51.6,-100.00,North,-999,0.0,2.7,69,0.00,,,-99.99,FreeWX-Wi 1.02,2013-09-29 14:53:00,
2013-09-29 11:03:00,62.4,51.3,-100.00,North,-999,0.0,4.0,67,0.00,,,-99.99,FreeWX-Wi 1.02,2013-09-29 15:03:00,
2013-09-29 11:13:00,63.1,51.3,-100.00,North,-999,0.0,3.6,65,0.00,,,-99.99,FreeWX-Wi 1.02,2013-09-29 15:13:00,
2013-09-29 11:23:00,63.9,51.1,-100.00,North,-999,0.0,4.9,63,0.00,,,-99.99,FreeWX-Wi 1.02,2013-09-29 15:23:00,
2013-09-29 11:33:00,64.4,49.3,-100.00,North,-999,0.0,0.0,58,0.00,,,-99.99,FreeWX-Wi 1.02,2013-09-29 15:33:00,
2013-09-29 11:43:00,65.1,49.1,-100.00,North,-999,0.0,0.0,56,0.00,,,-99.99,FreeWX-Wi 1.02,2013-09-29 15:43:00,
2013-09-29 11:53:00,66.4,47.7,-100.00,North,-999,0.0,3.6,51,0.00,,,-99.99,FreeWX-Wi 1.02,2013-09-29 15:53:00,
2013-09-29 12:03:00,67.5,47.7,-100.00,North,-999,0.0,0.0,49,0.00,,,-99.99,FreeWX-Wi 1.02,2013-09-29 16:03:00,
2013-09-29 12:13:00,69.1,47.5,-100.00,North,-999,0.0,4.0,46,0.00,,,-99.99,FreeWX-Wi 1.02,2013-09-29 16:13:00,
2013-09-29 12:33:00,69.6,45.5,-100.00,North,-999,0.0,0.0,42,0.00,,,-99.99,FreeWX-Wi 1.02,2013-09-29 16:33:00,
2013-09-29 12:43:00,70.5,45.0,-100.00,North,-999,0.0,3.6,40,0.00,,,-99.99,FreeWX-Wi 1.02,2013-09-29 16:43:00,
2013-09-29 12:54:00,71.1,44.2,-100.00,North,-999,0.0,4.0,38,0.00,,,-99.99,FreeWX-Wi 1.02,2013-09-29 16:54:00,
2013-09-29 13:04:00,70.9,43.3,-100.00,North,-999,0.0,2.7,37,0.00,,,-99.99,FreeWX-Wi 1.02,2013-09-29 17:04:00,
2013-09-29 13:14:00,70.5,42.3,-100.00,North,-999,0.0,0.0,36,0.00,,,-99.99,FreeWX-Wi 1.02,2013-09-29 17:14:00,
2013-09-29 13:24:00,70.2,41.9,-100.00,North,-999,0.0,2.7,36,0.00,,,-99.99,FreeWX-Wi 1.02,2013-09-29 17:24:00,
2013-09-29 13:34:00,69.6,42.3,-100.00,North,-999,0.0,4.9,37,0.00,,,-99.99,FreeWX-Wi 1.02,2013-09-29 17:34:00,
2013-09-29 13:44:00,69.6,41.5,-100.00,North,-999,0.0,0.0,36,0.00,,,-99.99,FreeWX-Wi 1.02,2013-09-29 17:44:00,
2013-09-29 13:54:00,69.4,41.4,-100.00,North,-999,0.0,0.0,36,0.00,,,-99.99,FreeWX-Wi 1.02,2013-09-29 17:54:00,
2013-09-29 14:04:00,69.3,41.2,-100.00,North,-999,0.0,3.6,36,0.00,,,-99.99,FreeWX-Wi 1.02,2013-09-29 18:04:00,
2013-09-29 14:14:00,69.3,41.9,-100.00,North,-999,0.0,3.6,37,0.00,,,-99.99,FreeWX-Wi 1.02,2013-09-29 18:14:00,
2013-09-29 14:24:00,69.1,42.4,-100.00,North,-999,0.0,0.0,38,0.00,,,-99.99,FreeWX-Wi 1.02,2013-09-29 18:24:00,
2013-09-29 14:34:00,68.9,42.3,-100.00,North,-999,0.0,0.0,38,0.00,,,-99.99,FreeWX-Wi 1.02,2013-09-29 18:34:00,
2013-09-29 14:44:00,68.7,42.1,-100.00,North,-999,0.0,0.0,38,0.00,,,-99.99,FreeWX-Wi 1.02,2013-09-29 18:44:00,
2013-09-29 14:54:00,68.7,42.8,-100.00,North,-999,0.0,0.0,39,0.00,,,-99.99,FreeWX-Wi 1.02,2013-09-29 18:54:00,
2013-09-29 15:14:00,68.4,42.4,-100.00,North,-999,0.0,0.0,39,0.00,,,-99.99,FreeWX-Wi 1.02,2013-09-29 19:14:00,
2013-09-29 15:24:00,68.5,42.6,-100.00,North,-999,0.0,0.0,39,0.00,,,-99.99,FreeWX-Wi 1.02,2013-09-29 19:24:00,
2013-09-29 15:34:00,68.4,43.2,-100.00,North,-999,0.0,0.0,40,0.00,,,-99.99,FreeWX-Wi 1.02,2013-09-29 19:34:00,
2013-09-29 15:54:00,68.0,42.8,-100.00,North,-999,0.0,0.0,40,0.00,,,-99.99,FreeWX-Wi 1.02,2013-09-29 19:54:00,
2013-09-29 16:04:00,68.0,42.8,-100.00,North,-999,0.0,0.0,40,0.00,,,-99.99,FreeWX-Wi 1.02,2013-09-29 20:04:00,
2013-09-29 16:14:00,68.0,42.8,-100.00,North,-999,0.0,0.0,40,0.00,,,-99.99,FreeWX-Wi 1.02,2013-09-29 20:14:00,
2013-09-29 16:24:00,67.8,43.9,-100.00,North,-999,0.0,0.0,42,0.00,,,-99.99,FreeWX-Wi 1.02,2013-09-29 20:24:00,
2013-09-29 16:34:00,67.6,43.2,-100.00,North,-999,0.0,0.0,41,0.00,,,-99.99,FreeWX-Wi 1.02,2013-09-29 20:34:00,
2013-09-29 16:44:00,67.5,43.0,-100.00,North,-999,0.0,0.0,41,0.00,,,-99.99,FreeWX-Wi 1.02,2013-09-29 20:44:00,
2013-09-29 16:54:00,67.3,43.3,-100.00,North,-999,0.0,0.0,42,0.00,,,-99.99,FreeWX-Wi 1.02,2013-09-29 20:54:00,
2013-09-29 17:04:00,67.3,43.3,-100.00,North,-999,0.0,0.0,42,0.00,,,-99.99,FreeWX-Wi 1.02,2013-09-29 21:04:00,
2013-09-29 17:14:00,67.1,43.9,-100.00,North,-999,0.0,0.0,43,0.00,,,-99.99,FreeWX-Wi 1.02,2013-09-29 21:14:00,
2013-09-29 17:24:00,67.1,43.9,-100.00,North,-999,0.0,0.0,43,0.00,,,-99.99,FreeWX-Wi 1.02,2013-09-29 21:24:00,
2013-09-29 17:34:00,67.1,44.4,-100.00,North,-999,0.0,0.0,44,0.00,,,-99.99,FreeWX-Wi 1.02,2013-09-29 21:34:00,
2013-09-29 17:44:00,66.9,44.2,-100.00,North,-999,0.0,0.0,44,0.00,,,-99.99,FreeWX-Wi 1.02,2013-09-29 21:44:00,
2013-09-29 17:54:00,66.7,44.8,-100.00,North,-999,0.0,0.0,45,0.00,,,-99.99,FreeWX-Wi 1.02,2013-09-29 21:54:00,
2013-09-29 18:04:00,66.6,45.1,-100.00,North,-999,0.0,0.0,46,0.00,,,-99.99,FreeWX-Wi 1.02,2013-09-29 22:04:00,
2013-09-29 18:14:00,66.4,45.0,-100.00,North,-999,0.0,0.0,46,0.00,,,-99.99,FreeWX-Wi 1.02,2013-09-29 22:14:00,
2013-09-29 18:35:00,66.0,45.7,-100.00,North,-999,0.0,0.0,48,0.00,,,-99.99,FreeWX-Wi 1.02,2013-09-29 22:35:00,
2013-09-29 18:45:00,65.8,45.7,-100.00,North,-999,0.0,0.0,48,0.00,,,-99.99,FreeWX-Wi 1.02,2013-09-29 22:45:00,
2013-09-29 18:55:00,65.5,45.3,-100.00,North,-999,0.0,0.0,48,0.00,,,-99.99,FreeWX-Wi 1.02,2013-09-29 22:55:00,
2013-09-29 19:05:00,65.3,45.7,-100.00,North,-999,0.0,0.0,49,0.00,,,-99.99,FreeWX-Wi 1.02,2013-09-29 23:05:00,
2013-09-29 19:15:00,65.1,45.5,-100.00,North,-999,0.0,0.0,49,0.00,,,-99.99,FreeWX-Wi 1.02,2013-09-29 23:15:00,
2013-09-29 19:25:00,64.8,45.7,-100.00,North,-999,0.0,0.0,50,0.00,,,-99.99,FreeWX-Wi 1.02,2013-09-29 23:25:00,
2013-09-29 19:35:00,64.4,45.3,-100.00,North,-999,0.0,0.0,50,0.00,,,-99.99,FreeWX-Wi 1.02,2013-09-29 23:35:00,
2013-09-29 19:45:00,64.2,45.7,-100.00,North,-999,0.0,0.0,51,0.00,,,-99.99,FreeWX-Wi 1.02,2013-09-29 23:45:00,
2013-09-29 19:55:00,64.0,45.5,-100.00,North,-999,0.0,0.0,51,0.00,,,-99.99,FreeWX-Wi 1.02,2013-09-29 23:55:00,
2013-09-29 20:05:00,63.9,45.3,-100.00,North,-999,0.0,0.0,51,0.00,,,-99.99,FreeWX-Wi 1.02,2013-09-30 00:05:00,
2013-09-29 20:15:00,63.5,45.5,-100.00,North,-999,0.0,0.0,52,0.00,,,-99.99,FreeWX-Wi 1.02,2013-09-30 00:15:00,
2013-09-29 20:25:00,63.3,45.3,-100.00,North,-999,0.0,0.0,52,0.00,,,-99.99,FreeWX-Wi 1.02,2013-09-30 00:25:00,
2013-09-29 20:35:00,63.1,45.1,-100.00,North,-999,0.0,0.0,52,0.00,,,-99.99,FreeWX-Wi 1.02,2013-09-30 00:35:00,
2013-09-29 20:45:00,63.0,45.5,-100.00,North,-999,0.0,0.0,53,0.00,,,-99.99,FreeWX-Wi 1.02,2013-09-30 00:45:00,
2013-09-29 20:55:00,62.6,45.1,-100.00,North,-999,0.0,0.0,53,0.00,,,-99.99,FreeWX-Wi 1.02,2013-09-30 00:55:00,
2013-09-29 21:05:00,62.4,45.5,-100.00,North,-999,0.0,0.0,54,0.00,,,-99.99,FreeWX-Wi 1.02,2013-09-30 01:05:00,
2013-09-29 21:15:00,62.2,45.9,-100.00,North,-999,0.0,0.0,55,0.00,,,-99.99,FreeWX-Wi 1.02,2013-09-30 01:15:00,
2013-09-29 21:25:00,62.1,45.7,-100.00,North,-999,0.0,0.0,55,0.00,,,-99.99,FreeWX-Wi 1.02,2013-09-30 01:25:00,
2013-09-29 21:35:00,61.9,45.5,-100.00,North,-999,0.0,0.0,55,0.00,,,-99.99,FreeWX-Wi 1.02,2013-09-30 01:35:00,
2013-09-29 21:45:00,61.9,46.0,-100.00,North,-999,0.0,0.0,56,0.00,,,-99.99,FreeWX-Wi 1.02,2013-09-30 01:45:00,
2013-09-29 21:55:00,61.9,46.0,-100.00,North,-999,0.0,0.0,56,0.00,,,-99.99,FreeWX-Wi 1.02,2013-09-30 01:55:00,
2013-09-29 22:05:00,61.9,46.4,-100.00,North,-999,0.0,0.0,57,0.00,,,-99.99,FreeWX-Wi 1.02,2013-09-30 02:05:00,
2013-09-29 22:15:00,61.7,46.2,-100.00,North,-999,0.0,0.0,57,0.00,,,-99.99,FreeWX-Wi 1.02,2013-09-30 02:15:00,
2013-09-29 22:25:00,61.5,46.2,-100.00,North,-999,0.0,0.0,57,0.00,,,-99.99,FreeWX-Wi 1.02,2013-09-30 02:25:00,
2013-09-29 22:35:00,61.3,46.4,-100.00,North,-999,0.0,0.0,58,0.00,,,-99.99,FreeWX-Wi 1.02,2013-09-30 02:35:00,
2013-09-29 22:45:00,61.2,46.2,-100.00,North,-999,0.0,0.0,58,0.00,,,-99.99,FreeWX-Wi 1.02,2013-09-30 02:45:00,
2013-09-29 22:55:00,61.2,46.2,-100.00,North,-999,0.0,0.0,58,0.00,,,-99.99,FreeWX-Wi 1.02,2013-09-30 02:55:00,
2013-09-29 23:05:00,61.0,46.0,-100.00,North,-999,0.0,0.0,58,0.00,,,-99.99,FreeWX-Wi 1.02,2013-09-30 03:05:00,
2013-09-29 23:15:00,61.0,46.0,-100.00,North,-999,0.0,0.0,58,0.00,,,-99.99,FreeWX-Wi 1.02,2013-09-30 03:15:00,
2013-09-29 23:25:00,60.8,46.4,-100.00,North,-999,0.0,0.0,59,0.00,,,-99.99,FreeWX-Wi 1.02,2013-09-30 03:25:00,
2013-09-29 23:35:00,60.6,46.2,-100.00,North,-999,0.0,0.0,59,0.00,,,-99.99,FreeWX-Wi 1.02,2013-09-30 03:35:00,
2013-09-29 23:45:00,60.6,46.2,-100.00,North,-999,0.0,0.0,59,0.00,,,-99.99,FreeWX-Wi 1.02,2013-09-30 03:45:00,
2013-09-29 23:55:00,60.4,46.0,-100.00,North,-999,0.0,0.0,59,0.00,,,-99.99,FreeWX-Wi 1.02,2013-09-30 03:55:00,